Flag for Norway Weather past 2 weeks in Rygge, Norway

Now
35 °F

Light rain. Low clouds.


Feels Like: 29 °F
Forecast: 36 / 41 °F
Wind: 7 mph from Southeast

Location: Rygge

Current Time: Feb 27, 2015 at 7:03:26 AM

Latest Report: Feb 27, 2015 at 6:00 AM


Visibility: 3 mi

Pressure: 29.72 "Hg

Humidity: 95%

Dew point: 34 °F

Location of RyggeLocation

Historic Weather in Rygge — Graph

°F

Rygge temperature yesterday

Maximum temperature yesterday: 40 °F (at 8:00 PM)
Minimum temperature yesterday: 34 °F (at 6:00 AM)
Average temperature yesterday: 37 °F

Past Weeks' High & Low Weather Summary

 TemperatureHumidityPressure
High44 °F (Feb 18, 8:00 AM)100% (Feb 13, 1:00 AM)30.53 "Hg (Feb 13, 1:00 AM)
Low24 °F (Feb 22, 4:00 AM)40% (Feb 22, 4:00 PM)29.00 "Hg (Feb 23, 1:00 PM)
Average37 °F88%29.79 "Hg
* Reported Feb 12 5:00 AM — Feb 27 5:00 AM, Rygge, Weather by CustomWeather, © 2015

Note: Actual official high and low records may vary slightly from our data, if they occured in-between our weather recording intervals... More about our weather records

Advertising

Rygge weather history for previous 24 hours

 ConditionsComfort  
Time TempWeatherWind HumidityBarometerVisibility
5:00 AM
Fri, Feb 27
36 °FLight rain. Low clouds.8 mph95%29.72 "Hg3 mi
2:00 AM37 °FLight rain. Low clouds.10 mph94%29.74 "Hg3 mi
1:00 AM37 °FLight rain. Low clouds.9 mph93%29.75 "Hg3 mi
12:00 AM37 °FLight rain. Overcast.9 mph93%29.76 "Hg3 mi
11:00 PM
Thu, Feb 26
38 °FLight rain. Overcast.10 mph91%29.77 "Hg4 mi
10:00 PM39 °FOvercast.10 mph87%29.78 "Hg6 mi
9:00 PM40 °FOvercast.12 mph84%29.80 "Hg9 mi
8:00 PM40 °FOvercast.9 mph84%29.81 "Hg7 mi
7:00 PM38 °FOvercast.9 mph87%29.83 "Hg7 mi
6:00 PM37 °FOvercast.10 mph88%29.85 "Hg7 mi
5:00 PM38 °FOvercast.9 mph87%29.86 "Hg7 mi
4:00 PM38 °FOvercast.8 mph86%29.88 "Hg8 mi
3:00 PM38 °FOvercast.9 mph88%29.90 "Hg5 mi
2:00 PM37 °FLow clouds.9 mph90%29.92 "Hg6 mi
1:00 PM37 °FLow clouds.8 mph92%29.94 "Hg7 mi
12:00 PM37 °FLow clouds.8 mph90%29.96 "Hg8 mi
11:00 AM36 °FLow clouds.9 mph90%29.98 "Hg9 mi
10:00 AM35 °FLow clouds.10 mph93%29.99 "Hg7 mi
9:00 AM36 °FOvercast.9 mph91%30.00 "Hg10 mi
8:00 AM37 °FLow clouds.9 mph95%29.99 "Hg8 mi
7:00 AM37 °FLight fog.5 mph99%29.99 "Hg6 mi
Weather by CustomWeather, © 2015

See weather overviewHow to use our weather pages